Location: Unspecified
(0.0000°N, 0.0000°E)
Time: 01:38:40
(UTC+00:00)

ISS - Pass Details

Date: 14 February 2019
Orbit: 403 x 411 km, 51.6° (Epoch: 16 February)

Event Time Altitude Azimuth Distance (km) Brightness Sun altitude
Rises 19:48:12 0° 294° (WNW) 2,324 0.8 -22.9°
Reaches altitude 10° 19:51:00 10° 268° (W) 1,467 0.0 -23.6°
Maximum altitude 19:52:51 14° 234° (SW) 1,243 -0.5 -24.0°
Drops below altitude 10° 19:54:42 10° 200° (SSW) 1,472 -0.6 -24.5°
Enters shadow 19:56:49 - 178° (S) 2,088 -0.1 -25.0°
